Simultaneous Nadir Overpasses (SNOs) Predictions

Prediction of SNOs between AQUA and METOP-B Satellite Orbit:

Table of predicted SNOs for the next 14.0 days since TLE Epoch: 11/18/2017
Index Date (AQUA) Time (AQUA) Lat,Lon (AQUA) SZA (AQUA ) Date (METOP-B) Time (METOP-B) Lat,Lon (METOP-B) SZA (METOP-B ) Distance(km) Time Diff (sec)
1 11/20/2017 11:54:24 -73.73, 175.77 86.57 11/20/2017 11:53:14 -73.73, 175.69 86.56 2.81 70
2 11/20/2017 12:43:53 73.83, -16.82 93.55 11/20/2017 12:43:52 73.84, -16.73 93.56 2.89 1
3 11/20/2017 13:33:20 -73.88, 150.72 86.40 11/20/2017 13:34:33 -73.86, 150.65 86.42 2.89 73
4 11/23/2017 07:28:41 -73.77,-117.89 85.91 11/23/2017 07:27:37 -73.75,-117.86 85.93 2.64 64
5 11/23/2017 08:18:09 73.83, 49.62 94.16 11/23/2017 08:18:16 73.81, 49.60 94.13 3.05 7
6 11/23/2017 09:07:41 -74.13,-143.42 85.53 11/23/2017 09:08:51 -74.13,-142.29 85.55 34.40 70
7 11/26/2017 03:02:57 -73.78, -51.47 85.35 11/26/2017 03:02:00 -73.78, -51.40 85.35 2.25 57
8 11/26/2017 03:52:25 73.84, 116.03 94.73 11/26/2017 03:52:39 73.82, 116.05 94.71 2.15 14
9 11/26/2017 04:42:02 -74.39, -77.60 84.70 11/26/2017 04:43:09 -74.39, -75.20 84.73 71.62 67
10 11/28/2017 22:37:11 -73.75, 15.04 84.87 11/28/2017 22:36:23 -73.75, 14.94 84.87 3.31 48
11 11/28/2017 23:26:40 73.86,-177.57 95.26 11/28/2017 23:27:01 73.84,-177.51 95.23 3.08 21
12 12/01/2017 18:11:27 -73.77, 81.42 84.39 12/01/2017 18:10:46 -73.77, 81.39 84.39 1.15 41
13 12/01/2017 19:00:55 73.84,-111.08 95.69 12/01/2017 19:01:24 73.86,-111.06 95.70 2.01 29




NCC Satellite Simultaneous Nadir Overpasses (SNOs) Prediction Service
